IBE06GG LEMD-GCRR

Flight info

Callsign IBE06GG
Flight time 2h 29m
Altitude 33000
Route VTB N10 CRISA/N0455F390 N10 HIJ DCT SVL N857 KORNO UN857 TERTO
Aircraft A20N/M-SDE2E3FGHIRWXY/LB1

Departure

Time 2026-05-06 13:04
Airport Adolfo Suárez Madrid–Barajas Airport (LEMD)

Arrival

Time 2026-05-06 15:33
Airport César Manrique-Lanzarote Airport (GCRR)
Time Latitude Longitude Altitude Speed Heading
2026-05-06 12:38 40.48800 -3.58994 1980 ft 0 kts 270°
2026-05-06 12:56 40.48800 -3.58991 1980 ft 2 kts 272°
2026-05-06 12:57 40.48799 -3.58971 1981 ft 2 kts 282°
2026-05-06 12:57 40.48795 -3.58952 1980 ft 2 kts 292°
2026-05-06 12:57 40.48789 -3.58934 1981 ft 2 kts 294°
2026-05-06 12:57 40.48783 -3.58917 1981 ft 2 kts 308°
2026-05-06 12:58 40.48772 -3.58903 1983 ft 2 kts 335°
2026-05-06 12:58 40.48764 -3.58899 1980 ft 0 kts 350°
2026-05-06 12:59 40.48780 -3.58902 1983 ft 8 kts 354°
2026-05-06 12:59 40.48868 -3.58904 1982 ft 16 kts
2026-05-06 12:59 40.48988 -3.58903 1980 ft 18 kts
2026-05-06 12:59 40.49121 -3.58906 1980 ft 20 kts 358°
2026-05-06 13:00 40.49223 -3.58890 1981 ft 11 kts 44°
2026-05-06 13:00 40.49244 -3.58786 1981 ft 13 kts 86°
2026-05-06 13:00 40.49244 -3.58655 1980 ft 15 kts 92°
2026-05-06 13:00 40.49241 -3.58509 1982 ft 17 kts 89°
2026-05-06 13:01 40.49241 -3.58350 1980 ft 18 kts 90°
2026-05-06 13:01 40.49241 -3.58179 1983 ft 19 kts 90°
2026-05-06 13:01 40.49244 -3.57997 1980 ft 20 kts 89°
2026-05-06 13:01 40.49244 -3.57806 1980 ft 22 kts 89°
2026-05-06 13:02 40.49257 -3.57606 1982 ft 22 kts 70°
2026-05-06 13:02 40.49368 -3.57472 1982 ft 23 kts 18°
2026-05-06 13:02 40.49446 -3.57465 1983 ft 0 kts 359°
2026-05-06 13:03 40.49472 -3.57466 1981 ft 22 kts 359°
2026-05-06 13:03 40.49864 -3.57470 1980 ft 89 kts
2026-05-06 13:03 40.50674 -3.57473 1980 ft 141 kts 359°
2026-05-06 13:04 40.51799 -3.57480 1992 ft 180 kts
2026-05-06 13:04 40.53047 -3.57483 2469 ft 181 kts
2026-05-06 13:04 40.54314 -3.57466 3078 ft 184 kts
2026-05-06 13:04 40.55582 -3.57560 3719 ft 184 kts 341°
2026-05-06 13:05 40.56576 -3.58646 4038 ft 198 kts 299°
2026-05-06 13:05 40.57157 -3.60394 4266 ft 221 kts 294°
2026-05-06 13:05 40.58116 -3.62018 4805 ft 229 kts 319°
2026-05-06 13:05 40.59374 -3.63302 5697 ft 229 kts 324°
2026-05-06 13:06 40.60677 -3.64522 6598 ft 230 kts 324°
2026-05-06 13:06 40.61969 -3.65776 7466 ft 232 kts 322°
2026-05-06 13:06 40.63247 -3.67088 8329 ft 234 kts 321°
2026-05-06 13:06 40.64451 -3.68537 9182 ft 236 kts 305°
2026-05-06 13:07 40.65072 -3.70530 9992 ft 239 kts 276°
2026-05-06 13:07 40.64867 -3.72703 10704 ft 244 kts 246°
2026-05-06 13:07 40.63927 -3.74582 11381 ft 251 kts 232°
2026-05-06 13:07 40.62646 -3.76160 11932 ft 262 kts 207°
2026-05-06 13:08 40.60903 -3.76799 12686 ft 263 kts 179°
2026-05-06 13:08 40.59121 -3.76280 13468 ft 265 kts 151°
2026-05-06 13:08 40.57720 -3.74719 14165 ft 269 kts 127°
2026-05-06 13:08 40.56558 -3.72680 14503 ft 289 kts 126°
2026-05-06 13:09 40.55322 -3.70453 14706 ft 313 kts 126°
2026-05-06 13:09 40.53986 -3.68063 14908 ft 335 kts 127°
2026-05-06 13:09 40.52552 -3.65526 15079 ft 357 kts 127°
2026-05-06 13:09 40.51033 -3.62865 15541 ft 367 kts 127°
2026-05-06 13:10 40.49485 -3.60168 16259 ft 371 kts 127°
2026-05-06 13:10 40.47779 -3.57610 16882 ft 375 kts 140°
2026-05-06 13:10 40.45557 -3.55820 17516 ft 377 kts 159°
2026-05-06 13:10 40.43040 -3.55001 18148 ft 379 kts 174°
2026-05-06 13:11 40.40410 -3.54641 18755 ft 382 kts 177°
2026-05-06 13:11 40.37725 -3.54349 19394 ft 384 kts 178°
2026-05-06 13:11 40.35084 -3.54052 19994 ft 387 kts 178°
2026-05-06 13:11 40.32394 -3.53722 20608 ft 390 kts 177°
2026-05-06 13:12 40.29687 -3.53369 21208 ft 393 kts 178°
2026-05-06 13:12 40.26958 -3.53002 21802 ft 396 kts 178°
2026-05-06 13:12 40.24209 -3.52628 22388 ft 399 kts 178°
2026-05-06 13:12 40.21430 -3.52250 22982 ft 402 kts 178°
2026-05-06 13:13 40.18630 -3.51869 23562 ft 405 kts 178°
2026-05-06 13:13 40.15821 -3.51487 24040 ft 407 kts 178°
2026-05-06 13:13 40.12992 -3.51101 24522 ft 410 kts 178°
2026-05-06 13:13 40.10148 -3.50715 24999 ft 412 kts 179°
2026-05-06 13:14 40.07290 -3.50328 25441 ft 415 kts 179°
2026-05-06 13:14 40.04410 -3.49938 25901 ft 417 kts 179°
2026-05-06 13:14 40.01514 -3.49546 26335 ft 420 kts 179°
2026-05-06 13:14 39.98600 -3.49152 26765 ft 422 kts 179°
2026-05-06 13:15 39.95671 -3.48756 27189 ft 424 kts 179°
2026-05-06 13:15 39.92759 -3.48364 27591 ft 427 kts 179°
2026-05-06 13:15 39.89798 -3.47965 27986 ft 429 kts 179°
2026-05-06 13:15 39.86821 -3.47565 28386 ft 431 kts 179°
2026-05-06 13:16 39.83829 -3.47163 28750 ft 433 kts 179°
2026-05-06 13:16 39.80815 -3.46758 29119 ft 435 kts 179°
2026-05-06 13:16 39.77795 -3.46352 29482 ft 437 kts 179°
2026-05-06 13:16 39.74773 -3.46261 29836 ft 432 kts 190°
2026-05-06 13:17 39.71851 -3.47013 30147 ft 426 kts 202°
2026-05-06 13:17 39.69169 -3.48578 30457 ft 420 kts 215°
2026-05-06 13:17 39.66857 -3.50863 30763 ft 417 kts 227°
2026-05-06 13:17 39.65021 -3.53756 31061 ft 414 kts 239°
2026-05-06 13:18 39.63763 -3.57107 31434 ft 413 kts 251°
2026-05-06 13:18 39.63096 -3.60674 31825 ft 412 kts 258°
2026-05-06 13:18 39.62358 -3.64264 32215 ft 410 kts 249°
2026-05-06 13:18 39.61116 -3.67581 32601 ft 410 kts 239°
2026-05-06 13:19 39.59462 -3.70590 32983 ft 410 kts 232°
2026-05-06 13:19 39.57584 -3.73365 33378 ft 409 kts 229°
2026-05-06 13:19 39.55610 -3.76016 33771 ft 408 kts 227°
2026-05-06 13:19 39.53603 -3.78621 34108 ft 407 kts 227°
2026-05-06 13:20 39.51592 -3.81216 34381 ft 407 kts 227°
2026-05-06 13:20 39.49590 -3.83806 34627 ft 407 kts 227°
2026-05-06 13:20 39.47611 -3.86374 34873 ft 407 kts 227°
2026-05-06 13:20 39.45611 -3.88975 35103 ft 407 kts 227°
2026-05-06 13:21 39.43614 -3.91572 35329 ft 407 kts 227°
2026-05-06 13:21 39.41621 -3.94165 35555 ft 407 kts 227°
2026-05-06 13:21 39.39623 -3.96762 35763 ft 407 kts 227°
2026-05-06 13:21 39.37622 -3.99361 35995 ft 407 kts 227°
2026-05-06 13:22 39.35623 -4.01953 36211 ft 407 kts 227°
2026-05-06 13:22 39.33621 -4.04548 36389 ft 407 kts 227°
2026-05-06 13:22 39.31647 -4.07105 36602 ft 407 kts 227°
2026-05-06 13:22 39.29642 -4.09699 36799 ft 407 kts 227°
2026-05-06 13:23 39.27640 -4.12288 36972 ft 408 kts 227°
2026-05-06 13:23 39.25629 -4.14885 37156 ft 408 kts 227°
2026-05-06 13:23 39.23624 -4.17472 37350 ft 408 kts 227°
2026-05-06 13:23 39.21617 -4.20060 37527 ft 408 kts 227°
2026-05-06 13:24 39.19605 -4.22652 37689 ft 408 kts 227°
2026-05-06 13:24 39.17597 -4.25237 37865 ft 408 kts 227°
2026-05-06 13:24 39.15583 -4.27827 38024 ft 408 kts 227°
2026-05-06 13:24 39.13574 -4.30408 38166 ft 409 kts 227°
2026-05-06 13:25 39.11560 -4.32994 38335 ft 409 kts 227°
2026-05-06 13:25 39.09549 -4.35574 38498 ft 408 kts 227°
2026-05-06 13:25 39.07538 -4.38151 38631 ft 408 kts 227°
2026-05-06 13:26 39.03527 -4.43286 38830 ft 409 kts 227°
2026-05-06 13:26 38.99490 -4.48444 38925 ft 409 kts 227°
2026-05-06 13:27 38.95461 -4.53584 38927 ft 408 kts 227°
2026-05-06 13:27 38.91426 -4.58724 38928 ft 408 kts 227°
2026-05-06 13:28 38.87391 -4.63852 38927 ft 408 kts 227°
2026-05-06 13:28 38.83359 -4.68969 38926 ft 407 kts 227°
2026-05-06 13:29 38.79356 -4.74042 38921 ft 406 kts 227°
2026-05-06 13:29 38.75327 -4.79137 38912 ft 405 kts 227°
2026-05-06 13:30 38.71307 -4.84214 38908 ft 405 kts 227°
2026-05-06 13:30 38.67318 -4.89243 38902 ft 404 kts 227°
2026-05-06 13:31 38.63308 -4.94290 38900 ft 404 kts 227°
2026-05-06 13:31 38.59281 -4.99351 38924 ft 408 kts 227°
2026-05-06 13:32 38.55230 -5.04430 38926 ft 407 kts 226°
2026-05-06 13:32 38.50891 -5.09101 38922 ft 410 kts 219°
2026-05-06 13:33 38.46025 -5.12956 38924 ft 414 kts 211°
2026-05-06 13:33 38.40861 -5.16160 38923 ft 415 kts 210°
2026-05-06 13:34 38.35671 -5.19376 38922 ft 415 kts 210°
2026-05-06 13:34 38.30481 -5.22595 38922 ft 415 kts 210°
2026-05-06 13:35 38.25290 -5.25810 38923 ft 415 kts 210°
2026-05-06 13:35 38.20097 -5.29019 38918 ft 415 kts 210°
2026-05-06 13:36 38.14912 -5.32218 38925 ft 415 kts 210°
2026-05-06 13:36 38.09705 -5.35425 38922 ft 415 kts 210°
2026-05-06 13:37 38.05384 -5.38083 38926 ft 415 kts 210°
2026-05-06 13:37 37.99347 -5.41791 38921 ft 414 kts 210°
2026-05-06 13:38 37.94159 -5.44972 38919 ft 414 kts 210°
2026-05-06 13:38 37.89848 -5.47611 38914 ft 413 kts 210°
2026-05-06 13:39 37.84667 -5.50778 38916 ft 413 kts 210°
2026-05-06 13:39 37.79481 -5.53944 38910 ft 413 kts 210°
2026-05-06 13:40 37.73459 -5.57613 38915 ft 413 kts 210°
2026-05-06 13:40 37.69118 -5.60254 38912 ft 413 kts 210°
2026-05-06 13:41 37.63967 -5.63384 38915 ft 413 kts 210°
2026-05-06 13:41 37.58788 -5.66525 38913 ft 413 kts 210°
2026-05-06 13:42 37.53602 -5.69665 38916 ft 413 kts 210°
2026-05-06 13:42 37.48419 -5.72800 38914 ft 413 kts 210°
2026-05-06 13:43 37.43352 -5.76177 38912 ft 409 kts 216°
2026-05-06 13:43 37.38790 -5.80396 38912 ft 406 kts 224°
2026-05-06 13:44 37.34503 -5.85006 38918 ft 406 kts 223°
2026-05-06 13:44 37.30198 -5.89595 38914 ft 406 kts 223°
2026-05-06 13:45 37.25890 -5.94170 38910 ft 406 kts 223°
2026-05-06 13:45 37.19438 -6.01007 38927 ft 406 kts 223°
2026-05-06 13:46 37.15124 -6.05570 38923 ft 405 kts 223°
2026-05-06 13:46 37.10810 -6.10125 38928 ft 405 kts 223°
2026-05-06 13:47 37.06500 -6.14670 38927 ft 405 kts 223°
2026-05-06 13:47 37.02190 -6.19209 38932 ft 405 kts 223°
2026-05-06 13:48 36.97883 -6.23737 38937 ft 404 kts 223°
2026-05-06 13:48 36.93602 -6.28231 38928 ft 404 kts 223°
2026-05-06 13:49 36.89289 -6.32750 38948 ft 404 kts 223°
2026-05-06 13:49 36.84972 -6.37267 38947 ft 404 kts 223°
2026-05-06 13:50 36.80662 -6.41770 38956 ft 404 kts 223°
2026-05-06 13:50 36.76343 -6.46277 38954 ft 404 kts 223°
2026-05-06 13:51 36.72051 -6.50747 38958 ft 405 kts 223°
2026-05-06 13:51 36.67724 -6.55247 38960 ft 405 kts 223°
2026-05-06 13:52 36.63391 -6.59747 38962 ft 405 kts 223°
2026-05-06 13:52 36.59055 -6.64244 38965 ft 406 kts 223°
2026-05-06 13:53 36.54711 -6.68741 38960 ft 406 kts 223°
2026-05-06 13:53 36.50394 -6.73205 38963 ft 406 kts 223°
2026-05-06 13:54 36.46043 -6.77694 38970 ft 406 kts 223°
2026-05-06 13:54 36.41689 -6.82179 38971 ft 406 kts 223°
2026-05-06 13:55 36.37330 -6.86663 38969 ft 406 kts 223°
2026-05-06 13:55 36.32973 -6.91139 38973 ft 407 kts 223°
2026-05-06 13:56 36.28642 -6.95581 38971 ft 407 kts 223°
2026-05-06 13:56 36.24279 -7.00049 38975 ft 406 kts 223°
2026-05-06 13:57 36.19916 -7.04511 38972 ft 406 kts 223°
2026-05-06 13:57 36.15554 -7.08965 38976 ft 406 kts 223°
2026-05-06 13:58 36.11191 -7.13413 38980 ft 406 kts 223°
2026-05-06 13:58 36.06832 -7.17851 38977 ft 406 kts 223°
2026-05-06 13:59 36.02496 -7.22258 38976 ft 406 kts 223°
2026-05-06 13:59 35.98131 -7.26690 38980 ft 406 kts 223°
2026-05-06 14:00 35.93772 -7.31108 38975 ft 406 kts 222°
2026-05-06 14:00 35.89404 -7.35528 38974 ft 405 kts 222°
2026-05-06 14:01 35.85039 -7.39939 38978 ft 405 kts 222°
2026-05-06 14:01 35.80700 -7.44306 38981 ft 405 kts 222°
2026-05-06 14:02 35.76308 -7.48685 38982 ft 405 kts 222°
2026-05-06 14:02 35.71919 -7.53058 38981 ft 405 kts 222°
2026-05-06 14:03 35.67537 -7.57420 38984 ft 405 kts 222°
2026-05-06 14:03 35.63151 -7.61782 38989 ft 405 kts 222°
2026-05-06 14:04 35.58766 -7.66136 38985 ft 405 kts 222°
2026-05-06 14:04 35.54404 -7.70460 38985 ft 405 kts 222°
2026-05-06 14:05 35.50012 -7.74808 38989 ft 405 kts 222°
2026-05-06 14:05 35.45623 -7.79148 38990 ft 405 kts 222°
2026-05-06 14:06 35.41228 -7.83486 38994 ft 405 kts 222°
2026-05-06 14:06 35.36855 -7.87848 38992 ft 405 kts 223°
2026-05-06 14:07 35.32493 -7.92220 38993 ft 405 kts 223°
2026-05-06 14:07 35.28124 -7.96585 38995 ft 405 kts 223°
2026-05-06 14:08 35.23752 -8.00942 38994 ft 405 kts 223°
2026-05-06 14:08 35.19398 -8.05275 38994 ft 405 kts 223°
2026-05-06 14:09 35.15026 -8.09619 38995 ft 405 kts 223°
2026-05-06 14:09 35.10650 -8.13961 38996 ft 405 kts 223°
2026-05-06 14:10 35.06280 -8.18291 38996 ft 405 kts 223°
2026-05-06 14:10 35.01904 -8.22621 38999 ft 404 kts 223°
2026-05-06 14:11 34.97532 -8.26940 39000 ft 404 kts 223°
2026-05-06 14:11 34.93189 -8.31226 39000 ft 404 kts 223°
2026-05-06 14:12 34.88810 -8.35540 39001 ft 404 kts 223°
2026-05-06 14:12 34.84437 -8.39842 39002 ft 403 kts 223°
2026-05-06 14:13 34.80067 -8.44136 39000 ft 403 kts 223°
2026-05-06 14:13 34.75727 -8.48393 38997 ft 403 kts 223°
2026-05-06 14:14 34.71364 -8.52668 38999 ft 403 kts 223°
2026-05-06 14:14 34.66994 -8.56943 38996 ft 403 kts 223°
2026-05-06 14:15 34.62633 -8.61203 38997 ft 402 kts 223°
2026-05-06 14:15 34.58268 -8.65463 38996 ft 402 kts 223°
2026-05-06 14:16 34.53907 -8.69711 38997 ft 402 kts 223°
2026-05-06 14:16 34.49566 -8.73935 38995 ft 402 kts 223°
2026-05-06 14:17 34.45201 -8.78176 38996 ft 402 kts 223°
2026-05-06 14:17 34.40824 -8.82404 38998 ft 402 kts 222°
2026-05-06 14:18 34.36439 -8.86615 39000 ft 402 kts 222°
2026-05-06 14:18 34.32059 -8.90820 38997 ft 402 kts 222°
2026-05-06 14:19 34.27677 -8.95024 38999 ft 402 kts 222°
2026-05-06 14:19 34.23327 -8.99191 39002 ft 402 kts 222°
2026-05-06 14:20 34.18941 -9.03386 39002 ft 402 kts 222°
2026-05-06 14:20 34.14556 -9.07575 39003 ft 402 kts 222°
2026-05-06 14:21 34.10170 -9.11759 39010 ft 402 kts 222°
2026-05-06 14:21 34.05784 -9.15937 39008 ft 401 kts 222°
2026-05-06 14:22 34.01402 -9.20107 39011 ft 401 kts 222°
2026-05-06 14:22 33.97041 -9.24250 39010 ft 401 kts 222°
2026-05-06 14:23 33.92657 -9.28409 39010 ft 401 kts 222°
2026-05-06 14:23 33.88273 -9.32563 39003 ft 401 kts 222°
2026-05-06 14:24 33.83893 -9.36708 39005 ft 400 kts 222°
2026-05-06 14:24 33.79506 -9.40853 39002 ft 400 kts 222°
2026-05-06 14:25 33.75132 -9.44982 39004 ft 400 kts 222°
2026-05-06 14:25 33.70781 -9.49082 39005 ft 399 kts 222°
2026-05-06 14:26 33.66410 -9.53197 39004 ft 399 kts 222°
2026-05-06 14:26 33.62030 -9.57313 39004 ft 399 kts 222°
2026-05-06 14:27 33.58391 -9.60729 39002 ft 399 kts 222°
2026-05-06 14:27 33.54040 -9.64810 39002 ft 398 kts 222°
2026-05-06 14:28 33.49668 -9.68904 39002 ft 398 kts 222°
2026-05-06 14:28 33.45304 -9.72986 38998 ft 398 kts 222°
2026-05-06 14:29 33.40933 -9.77067 39001 ft 398 kts 222°
2026-05-06 14:29 33.36565 -9.81143 39002 ft 398 kts 222°
2026-05-06 14:30 33.32196 -9.85212 39001 ft 398 kts 222°
2026-05-06 14:30 33.27848 -9.89257 39002 ft 398 kts 222°
2026-05-06 14:31 33.23475 -9.93321 39004 ft 398 kts 222°
2026-05-06 14:31 33.19097 -9.97383 39002 ft 398 kts 222°
2026-05-06 14:32 33.14717 -10.01442 39004 ft 398 kts 222°
2026-05-06 14:32 33.10331 -10.05501 39004 ft 398 kts 222°
2026-05-06 14:33 33.05950 -10.09551 39005 ft 398 kts 222°
2026-05-06 14:33 33.01568 -10.13598 39003 ft 398 kts 222°
2026-05-06 14:34 32.97182 -10.17635 39006 ft 399 kts 221°
2026-05-06 14:34 32.92821 -10.21643 39006 ft 399 kts 221°
2026-05-06 14:35 32.88431 -10.25675 39006 ft 398 kts 221°
2026-05-06 14:35 32.84037 -10.29704 39009 ft 398 kts 221°
2026-05-06 14:36 32.79644 -10.33728 39007 ft 398 kts 221°
2026-05-06 14:36 32.75252 -10.37746 39006 ft 398 kts 221°
2026-05-06 14:37 32.70856 -10.41762 39006 ft 398 kts 221°
2026-05-06 14:37 32.66516 -10.45722 39005 ft 398 kts 221°
2026-05-06 14:38 32.62136 -10.49713 39008 ft 399 kts 221°
2026-05-06 14:38 32.57735 -10.53719 39005 ft 399 kts 221°
2026-05-06 14:39 32.53326 -10.57727 39008 ft 399 kts 221°
2026-05-06 14:39 32.48916 -10.61731 39008 ft 399 kts 221°
2026-05-06 14:40 32.44513 -10.65722 39007 ft 399 kts 221°
2026-05-06 14:40 32.40135 -10.69687 39014 ft 399 kts 221°
2026-05-06 14:41 32.35725 -10.73674 39008 ft 398 kts 221°
2026-05-06 14:41 32.31312 -10.77661 39007 ft 398 kts 221°
2026-05-06 14:42 32.26905 -10.81637 39010 ft 398 kts 221°
2026-05-06 14:42 32.22497 -10.85608 39015 ft 398 kts 221°
2026-05-06 14:43 32.18085 -10.89578 39012 ft 398 kts 221°
2026-05-06 14:43 32.13673 -10.93543 39010 ft 398 kts 221°
2026-05-06 14:44 32.09295 -10.97474 39012 ft 398 kts 220°
2026-05-06 14:45 32.02675 -11.03407 39007 ft 398 kts 220°
2026-05-06 14:45 31.98267 -11.07351 39010 ft 398 kts 220°
2026-05-06 14:46 31.93850 -11.11299 39012 ft 398 kts 220°
2026-05-06 14:46 31.89438 -11.15237 39011 ft 398 kts 220°
2026-05-06 14:47 31.85024 -11.19172 39011 ft 398 kts 220°
2026-05-06 14:47 31.80605 -11.23107 39011 ft 398 kts 220°
2026-05-06 14:48 31.76192 -11.27033 39009 ft 398 kts 220°
2026-05-06 14:48 31.71782 -11.30960 39010 ft 397 kts 220°
2026-05-06 14:49 31.68845 -11.33579 39010 ft 394 kts 220°
2026-05-06 14:49 31.64458 -11.37492 39011 ft 398 kts 220°
2026-05-06 14:50 31.60048 -11.41417 39011 ft 397 kts 220°
2026-05-06 14:50 31.55653 -11.45323 39012 ft 397 kts 220°
2026-05-06 14:51 31.51248 -11.49233 39013 ft 396 kts 220°
2026-05-06 14:51 31.46873 -11.53112 39012 ft 396 kts 220°
2026-05-06 14:52 31.42480 -11.57002 39011 ft 396 kts 220°
2026-05-06 14:52 31.38085 -11.60890 39009 ft 396 kts 220°
2026-05-06 14:53 31.33690 -11.64772 39011 ft 395 kts 220°
2026-05-06 14:53 31.29294 -11.68651 39012 ft 395 kts 220°
2026-05-06 14:54 31.24930 -11.72497 39013 ft 395 kts 220°
2026-05-06 14:54 31.20540 -11.76361 39012 ft 395 kts 220°
2026-05-06 14:55 31.16147 -11.80224 39009 ft 395 kts 220°
2026-05-06 14:55 31.11751 -11.84083 39013 ft 395 kts 220°
2026-05-06 14:56 31.07356 -11.87939 39012 ft 395 kts 220°
2026-05-06 14:56 31.02959 -11.91790 39012 ft 395 kts 220°
2026-05-06 14:57 30.98556 -11.95643 39018 ft 396 kts 220°
2026-05-06 14:57 30.94170 -11.99477 39021 ft 396 kts 220°
2026-05-06 14:58 30.89756 -12.03330 39023 ft 396 kts 220°
2026-05-06 14:58 30.85344 -12.07177 39022 ft 396 kts 220°
2026-05-06 14:59 30.80932 -12.11020 39021 ft 396 kts 220°
2026-05-06 14:59 30.76517 -12.14860 39023 ft 396 kts 220°
2026-05-06 15:00 30.72096 -12.18701 39030 ft 396 kts 220°
2026-05-06 15:00 30.67709 -12.22509 39028 ft 396 kts 220°
2026-05-06 15:01 30.63292 -12.26337 39026 ft 396 kts 220°
2026-05-06 15:01 30.58876 -12.30161 39023 ft 396 kts 220°
2026-05-06 15:02 30.54459 -12.33981 39025 ft 396 kts 220°
2026-05-06 15:02 30.50040 -12.37799 39024 ft 396 kts 220°
2026-05-06 15:03 30.45625 -12.41597 39022 ft 395 kts 220°
2026-05-06 15:03 30.41205 -12.45391 39023 ft 395 kts 220°
2026-05-06 15:04 30.36779 -12.49188 39020 ft 396 kts 220°
2026-05-06 15:04 30.32352 -12.52982 39018 ft 396 kts 220°
2026-05-06 15:05 30.27948 -12.56753 39020 ft 396 kts 220°
2026-05-06 15:05 30.23521 -12.60538 38959 ft 395 kts 220°
2026-05-06 15:05 30.21308 -12.62428 38587 ft 395 kts 220°
2026-05-06 15:06 30.19093 -12.64321 37767 ft 399 kts 220°
2026-05-06 15:06 30.16846 -12.66241 36754 ft 405 kts 219°
2026-05-06 15:06 30.14566 -12.68188 35865 ft 408 kts 219°
2026-05-06 15:06 30.12275 -12.70146 35058 ft 409 kts 220°
2026-05-06 15:07 30.10105 -12.72270 34266 ft 408 kts 225°
2026-05-06 15:07 30.08136 -12.74627 33341 ft 409 kts 229°
2026-05-06 15:07 30.06229 -12.77108 32177 ft 417 kts 229°
2026-05-06 15:07 30.04318 -12.79583 31375 ft 417 kts 229°
2026-05-06 15:08 30.02377 -12.82090 30468 ft 420 kts 230°
2026-05-06 15:08 30.00428 -12.84602 29779 ft 418 kts 230°
2026-05-06 15:08 29.98502 -12.87080 29246 ft 410 kts 230°
2026-05-06 15:08 29.96611 -12.89513 28643 ft 405 kts 230°
2026-05-06 15:09 29.94736 -12.91924 28046 ft 400 kts 230°
2026-05-06 15:09 29.92905 -12.94277 27462 ft 396 kts 230°
2026-05-06 15:09 29.90897 -12.96495 26851 ft 395 kts 221°
2026-05-06 15:09 29.88658 -12.98261 26270 ft 395 kts 212°
2026-05-06 15:10 29.86173 -12.99603 25662 ft 396 kts 204°
2026-05-06 15:10 29.83558 -13.00614 25048 ft 395 kts 202°
2026-05-06 15:10 29.80953 -13.01614 24441 ft 394 kts 202°
2026-05-06 15:10 29.78354 -13.02619 23808 ft 394 kts 202°
2026-05-06 15:11 29.75766 -13.03621 23117 ft 393 kts 202°
2026-05-06 15:11 29.73193 -13.04618 22571 ft 388 kts 202°
2026-05-06 15:11 29.70643 -13.05604 21966 ft 385 kts 202°
2026-05-06 15:11 29.68116 -13.06581 21359 ft 382 kts 202°
2026-05-06 15:12 29.65597 -13.07554 20749 ft 380 kts 202°
2026-05-06 15:12 29.63097 -13.08520 20143 ft 379 kts 202°
2026-05-06 15:12 29.60605 -13.09482 19528 ft 377 kts 202°
2026-05-06 15:12 29.58952 -13.10120 19124 ft 377 kts 202°
2026-05-06 15:13 29.56461 -13.11081 18494 ft 377 kts 202°
2026-05-06 15:13 29.53972 -13.12040 17792 ft 377 kts 202°
2026-05-06 15:13 29.50710 -13.13296 17037 ft 371 kts 201°
2026-05-06 15:13 29.48278 -13.14231 16632 ft 364 kts 201°
2026-05-06 15:14 29.46665 -13.14851 16423 ft 361 kts 201°
2026-05-06 15:14 29.44298 -13.15762 16065 ft 364 kts 201°
2026-05-06 15:14 29.41892 -13.16688 15718 ft 362 kts 201°
2026-05-06 15:14 29.39518 -13.17600 15362 ft 358 kts 201°
2026-05-06 15:15 29.37158 -13.18507 15010 ft 357 kts 201°
2026-05-06 15:15 29.34799 -13.19392 14662 ft 357 kts 199°
2026-05-06 15:15 29.32406 -13.20172 14313 ft 356 kts 198°
2026-05-06 15:15 29.30022 -13.20903 13963 ft 354 kts 198°
2026-05-06 15:16 29.27643 -13.21631 13595 ft 352 kts 198°
2026-05-06 15:16 29.25314 -13.22354 13248 ft 350 kts 198°
2026-05-06 15:16 29.22974 -13.23091 13048 ft 347 kts 198°
2026-05-06 15:16 29.20646 -13.23859 12915 ft 348 kts 199°
2026-05-06 15:17 29.18320 -13.24650 12790 ft 348 kts 199°
2026-05-06 15:17 29.16002 -13.25440 12662 ft 347 kts 199°
2026-05-06 15:17 29.13689 -13.26225 12532 ft 346 kts 199°
2026-05-06 15:17 29.11378 -13.27007 12306 ft 346 kts 199°
2026-05-06 15:18 29.09058 -13.27790 11739 ft 349 kts 199°
2026-05-06 15:18 29.06750 -13.28566 11490 ft 339 kts 199°
2026-05-06 15:18 29.04530 -13.29309 11359 ft 325 kts 199°
2026-05-06 15:18 29.02404 -13.30020 11229 ft 312 kts 199°
2026-05-06 15:19 29.00367 -13.30702 11066 ft 299 kts 200°
2026-05-06 15:19 28.98388 -13.31367 10524 ft 295 kts 200°
2026-05-06 15:19 28.96430 -13.32052 9980 ft 293 kts 201°
2026-05-06 15:19 28.94528 -13.32778 9382 ft 291 kts 202°
2026-05-06 15:20 28.92595 -13.33531 8754 ft 289 kts 202°
2026-05-06 15:20 28.90656 -13.34031 8148 ft 293 kts 184°
2026-05-06 15:20 28.88652 -13.33589 7857 ft 292 kts 158°
2026-05-06 15:20 28.86826 -13.32576 7723 ft 295 kts 156°
2026-05-06 15:21 28.84977 -13.31539 7556 ft 296 kts 156°
2026-05-06 15:21 28.83141 -13.30508 7392 ft 292 kts 156°
2026-05-06 15:21 28.81311 -13.29481 7231 ft 294 kts 156°
2026-05-06 15:21 28.79470 -13.28464 7059 ft 292 kts 160°
2026-05-06 15:22 28.77534 -13.27869 6881 ft 287 kts 176°
2026-05-06 15:22 28.75549 -13.27865 6722 ft 284 kts 186°
2026-05-06 15:22 28.73577 -13.27986 6567 ft 284 kts 186°
2026-05-06 15:22 28.71607 -13.28095 6408 ft 282 kts 186°
2026-05-06 15:23 28.69642 -13.28222 6244 ft 282 kts 191°
2026-05-06 15:23 28.67841 -13.28986 6086 ft 275 kts 218°
2026-05-06 15:23 28.66581 -13.30554 5937 ft 267 kts 245°
2026-05-06 15:23 28.66125 -13.32558 5784 ft 262 kts 272°
2026-05-06 15:24 28.66479 -13.34565 5640 ft 259 kts 289°
2026-05-06 15:24 28.67033 -13.36494 5485 ft 260 kts 289°
2026-05-06 15:24 28.67583 -13.38451 5363 ft 258 kts 289°
2026-05-06 15:24 28.68109 -13.40364 5289 ft 248 kts 289°
2026-05-06 15:25 28.68606 -13.42198 5189 ft 237 kts 289°
2026-05-06 15:25 28.69082 -13.43962 4989 ft 230 kts 289°
2026-05-06 15:25 28.69548 -13.45692 4770 ft 225 kts 290°
2026-05-06 15:25 28.70005 -13.47388 4545 ft 225 kts 290°
2026-05-06 15:26 28.70466 -13.49094 4319 ft 226 kts 290°
2026-05-06 15:26 28.70928 -13.50803 4085 ft 225 kts 290°
2026-05-06 15:26 28.71390 -13.52518 3857 ft 228 kts 290°
2026-05-06 15:26 28.71855 -13.54241 3643 ft 226 kts 290°
2026-05-06 15:27 28.72315 -13.55948 3415 ft 225 kts 290°
2026-05-06 15:27 28.72780 -13.57670 3187 ft 229 kts 291°
2026-05-06 15:27 28.73242 -13.59402 2956 ft 227 kts 291°
2026-05-06 15:27 28.73695 -13.61100 2745 ft 227 kts 291°
2026-05-06 15:28 28.74157 -13.62831 2513 ft 226 kts 290°
2026-05-06 15:28 28.74612 -13.64537 2328 ft 228 kts 290°
2026-05-06 15:28 28.75094 -13.66252 2289 ft 226 kts 298°
2026-05-06 15:28 28.76022 -13.67655 2298 ft 222 kts 325°
2026-05-06 15:29 28.77290 -13.68639 2293 ft 219 kts 330°
2026-05-06 15:29 28.78675 -13.69254 2302 ft 213 kts 358°
2026-05-06 15:29 28.80108 -13.68915 2305 ft 212 kts 25°
2026-05-06 15:29 28.81421 -13.68148 2297 ft 213 kts 27°
2026-05-06 15:30 28.82711 -13.67397 2291 ft 198 kts 26°
2026-05-06 15:30 28.83903 -13.66702 2238 ft 191 kts 26°
2026-05-06 15:30 28.85079 -13.66022 1998 ft 189 kts 27°
2026-05-06 15:30 28.86206 -13.65367 1707 ft 175 kts 26°
2026-05-06 15:31 28.87237 -13.64769 1464 ft 158 kts 26°
2026-05-06 15:31 28.88169 -13.64228 1256 ft 143 kts 27°
2026-05-06 15:31 28.89007 -13.63743 1084 ft 127 kts 28°
2026-05-06 15:32 28.90518 -13.62890 804 ft 123 kts 28°
2026-05-06 15:32 28.91302 -13.62419 579 ft 132 kts 32°
2026-05-06 15:32 28.92112 -13.61915 393 ft 128 kts 29°
2026-05-06 15:32 28.92906 -13.61477 199 ft 125 kts 31°
2026-05-06 15:33 28.93671 -13.61033 59 ft 120 kts 30°
2026-05-06 15:33 28.94277 -13.60678 38 ft 58 kts 26°
2026-05-06 15:33 28.94411 -13.60603 39 ft 7 kts 26°
2026-05-06 15:33 28.94503 -13.60582 41 ft 19 kts
2026-05-06 15:34 28.94638 -13.60590 42 ft 17 kts 358°
2026-05-06 15:34 28.94682 -13.60592 43 ft 0 kts 358°
2026-05-06 15:34 28.94684 -13.60592 43 ft 2 kts 358°
2026-05-06 15:34 28.94723 -13.60596 43 ft 9 kts 354°
2026-05-06 15:35 28.94799 -13.60588 42 ft 12 kts 21°
2026-05-06 15:35 28.94872 -13.60602 45 ft 12 kts 307°
2026-05-06 15:35 28.94922 -13.60693 45 ft 15 kts 304°
2026-05-06 15:35 28.94965 -13.60784 45 ft 0 kts 296°